Flag for United Kingdom Weather past 2 weeks in Glasgow, Scotland, United Kingdom

Now
59 °F

Mostly cloudy.


Feels Like: 57 °F
Forecast: 55 / 64 °F
Wind: 10 mph from Southwest

Location: Glasgow Airport

Current Time: Jul 29, 2014 at 7:50:11 AM

Latest Report: Jul 29, 2014 at 7:20 AM


Visibility: 5 mi

Pressure: 29.98 "Hg

Humidity: 94%

Dew point: 57 °F

Location of GlasgowLocation

Historic Weather in Glasgow — Graph

°F

Glasgow temperature yesterday

Maximum temperature yesterday: 73 °F (at 3:20 PM)
Minimum temperature yesterday: 52 °F (at 2:20 AM)
Average temperature yesterday: 61 °F

Past Weeks' High & Low Weather Summary

 TemperatureHumidityPressure
High82 °F (Jul 25, 3:50 PM)100% (Jul 14, 4:20 PM)30.30 "Hg (Jul 14, 4:20 PM)
Low50 °F (Jul 17, 4:50 AM)35% (Jul 25, 3:50 PM)29.65 "Hg (Jul 14, 4:50 PM)
Average63 °F80%30.02 "Hg
* Reported Jul 14 6:20 AM — Jul 29 6:50 AM, Glasgow, Weather by CustomWeather, © 2014

Note: Actual official high and low records may vary slightly from our data, if they occured in-between our weather recording intervals... More about our weather records

Advertising

Glasgow weather history for previous 24 hours

 ConditionsComfort  
Time TempWeatherWind HumidityBarometerVisibility
6:50 AM
Jul 29
59 °FMostly cloudy.10 mph94%29.98 "HgN/A
6:20 AM59 °FMostly cloudy.10 mph94%29.98 "HgN/A
5:50 AM57 °FPassing clouds.9 mph94%29.98 "HgN/A
5:20 AM57 °FPassing clouds.3 mph94%30.01 "HgN/A
4:50 AM57 °FLight rain. Mostly cloudy.3 mph94%30.01 "Hg5 mi
4:20 AM59 °FLight rain. Passing clouds.6 mph88%30.01 "Hg5 mi
3:50 AM59 °FPassing clouds.7 mph88%30.01 "HgN/A
3:20 AM59 °FPassing clouds.8 mph88%30.01 "HgN/A
2:50 AM59 °FPassing clouds.3 mph88%30.04 "HgN/A
2:20 AM59 °FPassing clouds.3 mph88%30.04 "HgN/A
1:50 AM59 °FPassing clouds.5 mph88%30.04 "HgN/A
1:20 AM57 °FPassing clouds.6 mph94%30.04 "HgN/A
12:50 AM57 °FPassing clouds.5 mph94%30.04 "HgN/A
12:20 AM57 °FCool.7 mph94%30.04 "HgN/A
11:50 PM
Jul 28
57 °FClear.6 mph94%30.04 "Hg10 mi
11:20 PM59 °FClear.6 mph88%30.04 "Hg10 mi
10:20 PM61 °FPassing clouds.7 mph83%30.07 "HgN/A
9:50 PM61 °FPassing clouds.6 mph83%30.07 "HgN/A
9:20 PM63 °FSunny.7 mph77%30.04 "Hg10 mi
8:50 PM63 °FSunny.7 mph77%30.04 "Hg10 mi
8:20 PM66 °FPassing clouds.12 mph73%30.04 "HgN/A
7:50 PM68 °FPassing clouds.12 mph69%30.04 "HgN/A
7:20 PM68 °FPassing clouds.9 mph69%30.04 "HgN/A
6:50 PM70 °FPassing clouds.9 mph69%30.04 "HgN/A
6:20 PM70 °FPassing clouds.10 mph64%30.04 "HgN/A
5:50 PM70 °FPassing clouds.10 mph64%30.04 "HgN/A
5:20 PM72 °FScattered clouds.12 mph61%30.04 "HgN/A
4:50 PM73 °FScattered clouds.5 mph61%30.04 "HgN/A
4:20 PM70 °FScattered clouds.7 mph64%30.04 "HgN/A
3:50 PM72 °FScattered clouds.8 mph57%30.07 "HgN/A
3:20 PM73 °FScattered clouds.6 mph50%30.07 "HgN/A
2:50 PM72 °FPassing clouds.5 mph57%30.07 "HgN/A
2:20 PM72 °FScattered clouds.6 mph53%30.07 "HgN/A
1:50 PM70 °FPassing clouds.5 mph57%30.07 "HgN/A
1:20 PM68 °FPassing clouds.3 mph64%30.07 "HgN/A
12:50 PM68 °FScattered clouds.5 mph69%30.07 "HgN/A
12:20 PM66 °FPassing clouds.5 mph73%30.07 "HgN/A
11:50 AM63 °FPassing clouds.3 mph83%30.07 "HgN/A
11:20 AM64 °FScattered clouds.2 mph78%30.07 "HgN/A
10:50 AM63 °FScattered clouds.2 mph83%30.07 "HgN/A
10:20 AM59 °FPartly sunny.3 mph94%30.07 "HgN/A
9:50 AM57 °FLow clouds.3 mph100%30.07 "Hg4 mi
9:20 AM57 °FLow clouds.3 mph100%30.07 "Hg4 mi
8:50 AM55 °FLow clouds.2 mph100%30.07 "Hg4 mi
8:20 AM55 °FFog.No wind100%30.07 "Hg3 mi
7:50 AM55 °FFog.3 mph100%30.07 "Hg1 mi
7:20 AM54 °FFog.5 mph100%30.07 "Hg2 mi
Weather by CustomWeather, © 2014

See weather overviewHow to use our weather pages